This is the latest recevied weather packets stored in our database for station/object KG5RGN-13. If no packets are shown the sender has not sent any weather packets the latest 1 day(s).
| Time | Temp. | Humidity | Pressure | Rain* | Wind** | Luminosity | Snow |
|---|---|---|---|---|---|---|---|
| 1778043758 | 8.33° C | 100% | 0 hPa | 0 mm | 0 m/s | - | - |
| 1778043458 | 8.33° C | 100% | 0 hPa | 0 mm | 1.34 m/s, 106° | - | - |
| 1778043159 | 8.33° C | 100% | 0 hPa | 0 mm | 1.79 m/s, 144° | - | - |
| 1778042859 | 8.33° C | 100% | 0 hPa | 0 mm | 0.89 m/s, 102° | - | - |
| 1778042559 | 8.89° C | 100% | 0 hPa | 0 mm | 1.34 m/s, 125° | - | - |
| 1778042259 | 8.89° C | 100% | 0 hPa | 0 mm | 1.79 m/s, 153° | - | - |
| 1778041959 | 8.89° C | 100% | 0 hPa | 0 mm | 0 m/s | - | - |
| 1778041659 | 8.89° C | 100% | 0 hPa | 0 mm | 1.79 m/s, 151° | - | - |
| 1778041359 | 8.89° C | 100% | 0 hPa | 0 mm | 1.79 m/s, 174° | - | - |
| 1778041059 | 8.89° C | 100% | 0 hPa | 0 mm | 1.34 m/s, 180° | - | - |
| 1778040759 | 8.33° C | 100% | 0 hPa | 0 mm | 1.34 m/s, 149° | - | - |
| 1778040459 | 8.89° C | 100% | 0 hPa | 0 mm | 1.79 m/s, 180° | - | - |
| 1778040159 | 9.44° C | 100% | 0 hPa | 0 mm | 0 m/s | - | - |
| 1778039859 | 8.89° C | 100% | 0 hPa | 0 mm | 4.47 m/s, 182° | - | - |
| 1778039559 | 8.33° C | 100% | 0 hPa | 0 mm | 2.68 m/s, 180° | - | - |
| 1778039259 | 8.33° C | 100% | 0 hPa | 0 mm | 2.24 m/s, 174° | - | - |
| 1778038959 | 8.33° C | 100% | 0 hPa | 0 mm | 3.13 m/s, 213° | - | - |
| 1778038659 | 8.33° C | 100% | 0 hPa | 0 mm | 4.02 m/s, 198° | - | - |
| 1778038359 | 8.89° C | 100% | 0 hPa | 0 mm | 4.47 m/s, 165° | - | - |
| 1778038059 | 8.89° C | 100% | 0 hPa | 0 mm | 3.58 m/s, 185° | - | - |
| 1778037759 | 9.44° C | 100% | 0 hPa | 0 mm | 2.24 m/s, 227° | - | - |
| 1778037459 | 8.89° C | 100% | 0 hPa | 0 mm | 4.02 m/s, 210° | - | - |
| 1778037159 | 8.89° C | 100% | 0 hPa | 0 mm | 3.58 m/s, 182° | - | - |
| 1778036859 | 9.44° C | 100% | 0 hPa | 0 mm | 5.36 m/s, 149° | - | - |
| 1778036559 | 9.44° C | 100% | 0 hPa | 0 mm | 6.26 m/s, 172° | - | - |
* Rain latest hour (hover to see other rain measurements)
** Current wind speed in m/s (hover to see current wind gust speed)